sat.trackr.live / text

‹ back to catalog

STARLINK-35562

NORAD 66063 · 2025-235F

PAYLOAD ACTIVE UNKNOWN

§ Identity

Operator
Country
US
Launch date
2025-10-19
Launch site
AFETR
Launch vehicle
Mass (kg)
RCS (m²)

Purposes: comms

External: N2YO · Heavens-Above · Gunter

§ Orbital elements

Epoch: 2026-05-24T16:47:43.902816Z

Period
94.11 min
Inclination
53.1617°
Eccentricity
0.0000897
Mean motion
15.30204387 rev/d
Perigee alt
474.6 km
Apogee alt
475.8 km
Semi-major
6,853.3 km
B*
3.9743e-4
RAAN
252.5832°
Arg perigee
84.8813°
Mean anomaly
275.2290°
Rev number
3,455

§ Raw data

STARLINK-355621 66063U 25235F   26144.69981369  .00011432  00000+0  39743-3 0  99952 66063  53.1617 252.5832 0000897  84.8813 275.2290 15.30204387 34556

JSON: /api/v1/satellites/66063 · /tle

For live sub-satellite position, see the globe view (requires WebGL).

§ Visibility from observer

Set your observer location to see the next 7 days of passes ≥ 10°. The values pass through the URL so the page stays shareable.

No JS? Fill the form by hand. The geolocation button needs JavaScript.